Location: Ellerstadt
(49.4644°N, 8.2615°E)
Time: 00:59:23
(UTC+00:00)

ISS - Pass Details

Date: 16 May 2021
Orbit: 417 x 422 km, 51.6° (Epoch: 15 June)

Event Time Altitude Azimuth Distance (km) Brightness Sun altitude
Rises 00:50:53 0° 288° (WNW) 2,373 0.0 -18.7°
Reaches altitude 10° 00:52:59 10° 288° (WNW) 1,508 -1.0 -18.6°
Maximum altitude 00:56:23 85° 203° (SSW) 428 -3.9 -18.4°
Drops below altitude 10° 00:59:46 10° 112° (ESE) 1,506 -0.9 -18.2°
Sets 01:01:52 0° 112° (ESE) 2,369 0.1 -18.0°
